Regional Weather Roundup
Issued by NWS Mobile, AL

Home | Current Version | Previous Version | Text Only | Print | Product List | Glossary On
Versions: 1 2 3 4 5 6 7 8 9 10 11 12 13 14 15 16 17 18 19 20 21 22 23 24 25 26 27 28
000
ASUS44 KMOB 231310
RWRMOB
REGIONAL WEATHER ROUNDUP
NATIONAL WEATHER SERVICE MOBILE AL
800 AM CDT WED APR 23 2014

NOTE: "FAIR" INDICATES FEW OR NO CLOUDS BELOW 12,000 FEET WITH NO
      SIGNIFICANT WEATHER AND/OR OBSTRUCTIONS TO VISIBILITY.

  * THESE STATIONS ARE PART OF THE UNIVERSITY OF SOUTH ALABAMA
    MESONET AND ARE NOT UNDER NWS OR FAA QUALITY CONTROL.

ALZ061>064-231400-
COASTAL ALABAMA

CITY           SKY/WX    TMP DP  RH WIND       PRES   REMARKS
MOBILE REG APT SUNNY     65  64  97 N7        29.97R
BROOKLEY FIELD SUNNY     65  62  90 CALM      29.98R
USA CAMPUS*      N/A     66  64  94 VRB2      29.97
DOG RIVER*     NOT AVBL


CITY           SKY/WX    TMP DP  RH WIND       PRES   REMARKS
MOUNT VERNON*  NOT AVBL
SARALAND*      NOT AVBL
BAY MINETTE*   NOT AVBL
LOXLEY*        NOT AVBL
ROBERTSDALE*   NOT AVBL
FAIRHOPE*      NOT AVBL
ELBERTA*       NOT AVBL
FOLEY*         NOT AVBL
GRAND BAY*     NOT AVBL
DAUPHIN ISLND* NOT AVBL
BON SCOUR NWR* NOT AVBL
GULF SHORES    SUNNY     65  64  96 CALM      29.97R

$$

ALZ051>060-231400-
INTERIOR SOUTHWEST AND SOUTH CENTRAL ALABAMA

CITY           SKY/WX    TMP DP  RH WIND       PRES   REMARKS
GREENVILLE     CLOUDY    62  60  93 N6        29.96R FOG
EVERGREEN      FOG       61  59  93 CALM      29.99R VSB 1/4
CASTLEBERRY*   NOT AVBL
ATMORE*        NOT AVBL
DIXIE*         NOT AVBL
ANDALUSIA/OPP  FOG       65  61  87 CALM      29.96S VSB 1/2
ANDALUSIA*     NOT AVBL
FLORALA APT    CLOUDY    63  61  94 N5        29.98R FOG
FLORALA*       NOT AVBL

$$

FLZ001>006-231400-
WESTERN FLORIDA PANHANDLE

CITY           SKY/WX    TMP DP  RH WIND       PRES   REMARKS
PENSACOLA      SUNNY     68  62  81 N7        29.96R
NAS PENSACOLA  MOSUNNY   65  64  97 NW5       29.96R
MILTON         MOSUNNY   64  62  93 CALM      29.97R FOG
WHTNG S FIELD  MOSUNNY   66  62  87 N6        29.97R FOG


CITY           SKY/WX    TMP DP  RH WIND       PRES   REMARKS
WALNUT HILL*   NOT AVBL
JAY*           NOT AVBL
DUKE FIELD     MOSUNNY   63  63 100 CALM      29.96R FOG
CRESTVIEW      SUNNY     65  63  93 CALM      29.97R FOG
VALPARAISO     SUNNY     67  66  98 N5        29.96R
DESTIN         SUNNY     68  64  87 N6        29.96R

$$

MSZ076-079-231400-
INTERIOR SOUTHEAST MISSISSIPPI

CITY           SKY/WX    TMP DP  RH WIND       PRES   REMARKS
LEAKESVILLE*     N/A     59  59 100 N5        29.98R
AGRICOLA*      NOT AVBL

$$

MARINE OBSERVATIONS

STATION/POSITION TIME  TEMP    WIND        PRES    WAVE
                       AIR SEA DIR/SP/G            HT/PER
                 (UTC) (F)     (DEG/KT/KT) (MB)    (FT/S)
PASCAGOULA       1300   65      10/  3/  3 1014.3R
PETIT BOIS ISLND 1300   68     330/  1/  2 1014.8S
GRAND BAY        1200   61     360/  2     1015.0R
KATRINA CUT      1200   67      30/  5     1015.2R
CEDAR POINT      1200   65     340/  1     1014.6R
E DAUPHIN ISLAND 1300   67      CALM  /  1 1014.5R
MIDDLE BAY LIGHT 1200   71     360/  3     1014.2R
USCG MOBILE BAY  1300   66 68   40/  3/  3 1013.6S
STATE DOCKS      1300   67 65              1014.4S
MEAHER PARK      1200   63        CALM     1015.2R
WEEKS BAY        1200   48                   N/A
FORT MORGAN      1300   67      10/  5/  5 1014.3S
12 S ORANGE BCH  1300   67 68  360/  8/ 10 1014.6R   1/ 4
PENSACOLA BAY    1300   67 69  360/  6/  7 1014.7R
64 S DAUPHIN ISL 1249   68 68  330/  6/  8 1014.7R
67 S FORT MORGAN 1200   68                 1014.2R

$$

SELECTED LOCATIONS ACROSS THE REGION

CITY           SKY/WX    TMP DP  RH WIND       PRES   REMARKS
NEW ORLEANS    SUNNY     69  64  84 N10       29.98R
GULFPORT       SUNNY     68  62  81 N3        29.97R
PASCAGOULA AP  MOSUNNY   63  63 100 N3        29.97R FOG
PASCAGOULA*      N/A     66  66 100 CALM      29.97
HATTIESBURG    SUNNY     63  60  90 N3        29.99R FOG
LAUREL         SUNNY     64  55  72 N6        29.99R
MERIDIAN       SUNNY     59  55  87 N6        30.00R
JACKSON        MOSUNNY   59  57  93 N5        30.00R FOG
MONTGOMERY     FOG       61  59  93 N3        29.96R VSB 1/2
TROY           FOG       60  59  96 CALM      29.96R VSB<1/4
KINSTON*       NOT AVBL
GENEVA*          N/A     57  55  94 N3        29.98R
ASHFORD*       NOT AVBL
DOTHAN         SUNNY     64  62  93 NW5       29.99S FOG
PANAMA CITY    CLOUDY    66  63  88 N3        29.95R FOG

$$




USA.gov is the U.S. government's official web portal to all federal, state and local government web resources and services.